{"data":{"norad_id":66476,"epoch":"2026-05-24T22:00:39.485088Z","epoch_age_seconds":89058,"freshness":"FRESH","line1":"1 66476U 25262W   26144.91712367  .00010893  00000+0  40473-3 0  9990","line2":"2 66476  42.9982 225.7379 0001337 280.4611  79.6090 15.27582390 30451","mean_motion":15.2758239,"eccentricity":0.0001337,"inclination_deg":42.9982,"raan_deg":225.7379,"arg_perigee_deg":280.4611,"mean_anomaly_deg":79.609,"bstar":0.00040473,"rev_number":3045,"period_min":94.266601227316,"perigee_km":482.12459990497,"apogee_km":483.9592791534,"semimajor_km":6861.1789395292,"source":"CELESTRAK","updated_at":"2026-05-25T13:38:21.239411Z"}}